Time,TemperatureF,DewpointF,PressureIn,WindDirection,WindDirectionDegrees,WindSpeedMPH,WindSpeedGustMPH,Humidity,HourlyPrecipIn,Conditions,Clouds,dailyrainin,SoftwareType,DateUTC
2013-04-10 00:02:00,46.4,42.7,29.95,NNE,12,1.0,3.0,87,0.39,,,0.01,Wunderground v.1.15,2013-04-10 04:02:00,
2013-04-10 00:04:00,46.4,42.7,29.96,NNE,12,1.0,3.0,87,0.50,,,0.03,Wunderground v.1.15,2013-04-10 04:04:00,
2013-04-10 00:06:00,46.3,42.6,29.96,NNE,12,1.0,3.0,87,0.44,,,0.04,Wunderground v.1.15,2013-04-10 04:06:00,
2013-04-10 00:12:00,46.3,42.6,29.95,NNE,12,0.0,2.0,87,0.37,,,0.08,Wunderground v.1.15,2013-04-10 04:12:00,
2013-04-10 00:14:00,46.3,42.6,29.96,NNE,12,0.0,2.0,87,0.46,,,0.10,Wunderground v.1.15,2013-04-10 04:14:00,
2013-04-10 00:20:00,46.3,42.3,29.95,ESE,113,1.0,3.0,86,0.18,,,0.12,Wunderground v.1.15,2013-04-10 04:20:00,
2013-04-10 00:26:00,46.2,42.2,29.94,ESE,123,3.0,4.0,86,0.26,,,0.14,Wunderground v.1.15,2013-04-10 04:26:00,
2013-04-10 00:32:00,46.2,42.2,29.94,SSE,148,3.0,4.0,86,0.20,,,0.16,Wunderground v.1.15,2013-04-10 04:32:00,
2013-04-10 00:38:00,46.3,42.0,29.93,ESE,121,2.0,4.0,85,0.20,,,0.18,Wunderground v.1.15,2013-04-10 04:38:00,
2013-04-10 00:44:00,46.3,42.0,29.94,ENE,71,1.0,2.0,85,0.08,,,0.18,Wunderground v.1.15,2013-04-10 04:44:00,
2013-04-10 00:50:00,46.2,41.9,29.94,NE,48,2.0,2.0,85,0.05,,,0.19,Wunderground v.1.15,2013-04-10 04:50:00,
2013-04-10 00:56:00,46.2,41.9,29.93,NE,56,1.0,3.0,85,0.05,,,0.19,Wunderground v.1.15,2013-04-10 04:56:00,
2013-04-10 01:02:00,46.2,41.9,29.92,NE,56,1.0,1.0,85,0.06,,,0.20,Wunderground v.1.15,2013-04-10 05:02:00,
2013-04-10 01:08:00,46.3,42.0,29.92,NE,44,0.0,3.0,85,0.06,,,0.20,Wunderground v.1.15,2013-04-10 05:08:00,
2013-04-10 01:14:00,46.2,41.9,29.92,NE,44,1.0,1.0,85,0.04,,,0.20,Wunderground v.1.15,2013-04-10 05:14:00,
2013-04-10 01:20:00,46.3,41.7,29.92,NE,44,1.0,2.0,84,0.00,,,0.20,Wunderground v.1.15,2013-04-10 05:20:00,
2013-04-10 01:26:00,46.3,41.7,29.93,NE,40,2.0,3.0,84,0.00,,,0.20,Wunderground v.1.15,2013-04-10 05:26:00,
2013-04-10 01:32:00,46.3,41.7,29.93,NNE,32,2.0,2.0,84,0.00,,,0.21,Wunderground v.1.15,2013-04-10 05:32:00,
2013-04-10 01:38:00,46.3,41.7,29.93,NE,34,1.0,2.0,84,0.00,,,0.21,Wunderground v.1.15,2013-04-10 05:38:00,
2013-04-10 01:44:00,46.3,41.7,29.93,NNE,22,1.0,3.0,84,0.05,,,0.22,Wunderground v.1.15,2013-04-10 05:44:00,
2013-04-10 01:50:00,46.3,41.7,29.94,NNE,22,0.0,0.0,84,0.05,,,0.22,Wunderground v.1.15,2013-04-10 05:50:00,
2013-04-10 01:56:00,46.3,41.7,29.95,NNE,20,0.0,1.0,84,0.06,,,0.23,Wunderground v.1.15,2013-04-10 05:56:00,
2013-04-10 02:02:00,46.1,41.5,29.94,NNE,17,1.0,1.0,84,0.06,,,0.23,Wunderground v.1.15,2013-04-10 06:02:00,
2013-04-10 02:08:00,46.0,41.4,29.94,North,5,1.0,2.0,84,0.04,,,0.23,Wunderground v.1.15,2013-04-10 06:08:00,
2013-04-10 02:13:00,46.0,41.4,29.94,North,5,1.0,2.0,84,0.00,,,0.24,Wunderground v.1.15,2013-04-10 06:13:00,
2013-04-10 02:20:00,45.9,41.3,29.94,North,5,0.0,0.0,84,0.08,,,0.25,Wunderground v.1.15,2013-04-10 06:20:00,
2013-04-10 02:26:00,45.9,41.3,29.94,North,5,0.0,1.0,84,0.08,,,0.25,Wunderground v.1.15,2013-04-10 06:26:00,
2013-04-10 02:32:00,45.9,41.3,29.94,North,5,0.0,2.0,84,0.06,,,0.26,Wunderground v.1.15,2013-04-10 06:32:00,
2013-04-10 02:38:00,45.8,41.2,29.94,North,5,0.0,2.0,84,0.09,,,0.27,Wunderground v.1.15,2013-04-10 06:38:00,
2013-04-10 02:44:00,45.8,41.2,29.94,North,5,0.0,0.0,84,0.07,,,0.27,Wunderground v.1.15,2013-04-10 06:44:00,
2013-04-10 02:50:00,45.8,41.2,29.94,North,5,0.0,0.0,84,0.04,,,0.27,Wunderground v.1.15,2013-04-10 06:50:00,
2013-04-10 02:56:00,45.8,41.2,29.94,North,5,0.0,0.0,84,0.00,,,0.28,Wunderground v.1.15,2013-04-10 06:56:00,
2013-04-10 03:02:00,45.8,41.2,29.94,North,5,0.0,0.0,84,0.00,,,0.28,Wunderground v.1.15,2013-04-10 07:02:00,
2013-04-10 03:08:00,45.8,41.2,29.94,North,5,0.0,0.0,84,0.00,,,0.28,Wunderground v.1.15,2013-04-10 07:08:00,
2013-04-10 03:14:00,45.8,41.2,29.94,North,5,0.0,1.0,84,0.00,,,0.28,Wunderground v.1.15,2013-04-10 07:14:00,
2013-04-10 03:20:00,45.8,41.2,29.94,North,5,1.0,1.0,84,0.00,,,0.28,Wunderground v.1.15,2013-04-10 07:20:00,
2013-04-10 03:26:00,45.8,41.2,29.93,North,5,1.0,1.0,84,0.00,,,0.28,Wunderground v.1.15,2013-04-10 07:26:00,
2013-04-10 03:32:00,45.8,41.2,29.93,North,5,0.0,0.0,84,0.00,,,0.28,Wunderground v.1.15,2013-04-10 07:32:00,
2013-04-10 03:38:00,45.8,41.2,29.93,North,5,0.0,0.0,84,0.00,,,0.29,Wunderground v.1.15,2013-04-10 07:38:00,
2013-04-10 03:44:00,45.8,41.2,29.93,North,5,0.0,0.0,84,0.00,,,0.29,Wunderground v.1.15,2013-04-10 07:44:00,
2013-04-10 03:50:00,45.8,41.2,29.94,North,5,0.0,0.0,84,0.00,,,0.29,Wunderground v.1.15,2013-04-10 07:50:00,
2013-04-10 03:56:00,45.8,40.9,29.93,North,5,0.0,0.0,83,0.00,,,0.29,Wunderground v.1.15,2013-04-10 07:56:00,
2013-04-10 04:02:00,45.8,40.9,29.94,North,5,0.0,0.0,83,0.00,,,0.29,Wunderground v.1.15,2013-04-10 08:02:00,
2013-04-10 04:08:00,45.8,40.9,29.94,North,5,0.0,0.0,83,0.00,,,0.29,Wunderground v.1.15,2013-04-10 08:08:00,
2013-04-10 04:14:00,45.8,40.9,29.93,North,5,0.0,0.0,83,0.00,,,0.29,Wunderground v.1.15,2013-04-10 08:14:00,
2013-04-10 04:20:00,45.8,40.9,29.94,North,5,0.0,0.0,83,0.00,,,0.29,Wunderground v.1.15,2013-04-10 08:20:00,
2013-04-10 04:26:00,45.8,40.9,29.95,North,5,0.0,0.0,83,0.00,,,0.29,Wunderground v.1.15,2013-04-10 08:26:00,
2013-04-10 04:32:00,45.8,40.9,29.95,North,5,0.0,1.0,83,0.00,,,0.29,Wunderground v.1.15,2013-04-10 08:32:00,
2013-04-10 04:38:00,45.8,40.9,29.94,North,5,0.0,2.0,83,0.00,,,0.29,Wunderground v.1.15,2013-04-10 08:38:00,
2013-04-10 04:44:00,45.8,40.9,29.95,North,5,0.0,0.0,83,0.00,,,0.29,Wunderground v.1.15,2013-04-10 08:44:00,
2013-04-10 04:50:00,45.8,40.9,29.94,North,5,0.0,0.0,83,0.00,,,0.29,Wunderground v.1.15,2013-04-10 08:50:00,
2013-04-10 04:56:00,45.8,40.9,29.95,North,5,0.0,0.0,83,0.00,,,0.29,Wunderground v.1.15,2013-04-10 08:56:00,
2013-04-10 05:02:00,45.8,40.9,29.95,North,5,0.0,0.0,83,0.00,,,0.29,Wunderground v.1.15,2013-04-10 09:02:00,
2013-04-10 05:08:00,45.7,40.8,29.95,North,5,0.0,1.0,83,0.00,,,0.29,Wunderground v.1.15,2013-04-10 09:08:00,
2013-04-10 05:14:00,45.7,40.8,29.95,North,5,1.0,2.0,83,0.00,,,0.29,Wunderground v.1.15,2013-04-10 09:14:00,
2013-04-10 05:20:00,45.7,40.8,29.94,North,5,1.0,1.0,83,0.00,,,0.29,Wunderground v.1.15,2013-04-10 09:20:00,
2013-04-10 05:26:00,45.6,40.7,29.94,North,5,0.0,1.0,83,0.00,,,0.29,Wunderground v.1.15,2013-04-10 09:26:00,
2013-04-10 05:32:00,45.6,40.7,29.95,North,5,0.0,0.0,83,0.00,,,0.29,Wunderground v.1.15,2013-04-10 09:32:00,
2013-04-10 05:38:00,45.6,40.7,29.95,North,5,0.0,0.0,83,0.00,,,0.29,Wunderground v.1.15,2013-04-10 09:38:00,
2013-04-10 05:44:00,45.6,40.7,29.95,North,5,0.0,0.0,83,0.00,,,0.29,Wunderground v.1.15,2013-04-10 09:44:00,
2013-04-10 05:50:00,45.6,40.7,29.96,North,360,0.0,1.0,83,0.00,,,0.29,Wunderground v.1.15,2013-04-10 09:50:00,
2013-04-10 05:56:00,45.6,40.7,29.96,North,355,1.0,2.0,83,0.00,,,0.30,Wunderground v.1.15,2013-04-10 09:56:00,
2013-04-10 06:02:00,45.6,40.7,29.96,North,355,1.0,2.0,83,0.00,,,0.30,Wunderground v.1.15,2013-04-10 10:02:00,
2013-04-10 06:08:00,45.6,40.7,29.96,North,355,1.0,2.0,83,0.00,,,0.30,Wunderground v.1.15,2013-04-10 10:08:00,
2013-04-10 06:14:00,45.6,40.7,29.96,North,355,0.0,1.0,83,0.00,,,0.30,Wunderground v.1.15,2013-04-10 10:14:00,
2013-04-10 06:20:00,45.6,40.7,29.97,North,350,1.0,1.0,83,0.00,,,0.30,Wunderground v.1.15,2013-04-10 10:20:00,
2013-04-10 06:26:00,45.6,40.7,29.97,North,350,1.0,2.0,83,0.00,,,0.30,Wunderground v.1.15,2013-04-10 10:26:00,
2013-04-10 06:32:00,45.5,40.6,29.97,North,350,1.0,1.0,83,0.00,,,0.30,Wunderground v.1.15,2013-04-10 10:32:00,
2013-04-10 06:38:00,45.5,40.6,29.98,NNW,347,1.0,1.0,83,0.00,,,0.30,Wunderground v.1.15,2013-04-10 10:38:00,
2013-04-10 06:44:00,45.5,40.6,29.98,NNW,346,1.0,1.0,83,0.00,,,0.30,Wunderground v.1.15,2013-04-10 10:44:00,
2013-04-10 06:50:00,45.5,40.6,29.98,NNW,346,0.0,1.0,83,0.00,,,0.30,Wunderground v.1.15,2013-04-10 10:50:00,
2013-04-10 06:56:00,45.5,40.6,29.98,NNW,346,0.0,3.0,83,0.00,,,0.30,Wunderground v.1.15,2013-04-10 10:56:00,
2013-04-10 07:02:00,45.5,40.6,29.98,NNW,346,0.0,0.0,83,0.00,,,0.30,Wunderground v.1.15,2013-04-10 11:02:00,
2013-04-10 07:08:00,45.5,40.6,29.97,NNW,346,0.0,0.0,83,0.00,,,0.30,Wunderground v.1.15,2013-04-10 11:08:00,
2013-04-10 07:14:00,45.5,40.6,29.98,NNW,346,0.0,0.0,83,0.00,,,0.30,Wunderground v.1.15,2013-04-10 11:14:00,
2013-04-10 07:20:00,45.6,40.7,29.98,NNW,346,0.0,0.0,83,0.00,,,0.30,Wunderground v.1.15,2013-04-10 11:20:00,
2013-04-10 07:26:00,45.6,40.7,29.99,NNW,346,0.0,1.0,83,0.00,,,0.30,Wunderground v.1.15,2013-04-10 11:26:00,
2013-04-10 07:32:00,45.7,40.8,29.98,NNW,346,0.0,0.0,83,0.00,,,0.30,Wunderground v.1.15,2013-04-10 11:32:00,
2013-04-10 07:38:00,45.8,40.9,29.98,NNW,346,0.0,0.0,83,0.00,,,0.30,Wunderground v.1.15,2013-04-10 11:38:00,
2013-04-10 07:43:00,45.8,40.9,29.98,NNW,346,0.0,0.0,83,0.00,,,0.30,Wunderground v.1.15,2013-04-10 11:43:00,
2013-04-10 07:50:00,45.9,41.0,29.98,NNW,346,0.0,0.0,83,0.00,,,0.30,Wunderground v.1.15,2013-04-10 11:50:00,
2013-04-10 07:56:00,45.9,41.0,29.98,NNW,346,0.0,1.0,83,0.00,,,0.30,Wunderground v.1.15,2013-04-10 11:56:00,
2013-04-10 08:03:00,46.2,41.3,29.98,NNW,346,0.0,0.0,83,0.00,,,0.30,Wunderground v.1.15,2013-04-10 12:03:00,
2013-04-10 08:10:00,46.4,41.5,29.98,NNW,346,0.0,0.0,83,0.00,,,0.30,Wunderground v.1.15,2013-04-10 12:10:00,
2013-04-10 08:16:00,46.6,41.7,29.98,NNW,346,0.0,1.0,83,0.00,,,0.30,Wunderground v.1.15,2013-04-10 12:16:00,
2013-04-10 08:22:00,46.9,42.0,29.98,NNW,346,1.0,1.0,83,0.00,,,0.30,Wunderground v.1.15,2013-04-10 12:22:00,
2013-04-10 08:28:00,47.1,42.2,29.98,NNW,333,1.0,2.0,83,0.00,,,0.30,Wunderground v.1.15,2013-04-10 12:28:00,
2013-04-10 08:34:00,47.3,42.4,29.98,NNW,333,1.0,1.0,83,0.00,,,0.30,Wunderground v.1.15,2013-04-10 12:34:00,
2013-04-10 08:40:00,47.4,42.5,29.98,NNW,333,0.0,1.0,83,0.00,,,0.30,Wunderground v.1.15,2013-04-10 12:40:00,
2013-04-10 08:46:00,47.6,42.7,29.98,NNW,333,1.0,2.0,83,0.00,,,0.30,Wunderground v.1.15,2013-04-10 12:46:00,
2013-04-10 08:52:00,47.7,42.8,29.99,NNW,327,2.0,2.0,83,0.00,,,0.30,Wunderground v.1.15,2013-04-10 12:52:00,
2013-04-10 08:58:00,47.6,42.7,29.99,NW,313,3.0,5.0,83,0.00,,,0.30,Wunderground v.1.15,2013-04-10 12:58:00,
2013-04-10 09:04:00,47.6,42.7,30.00,NW,321,2.0,5.0,83,0.00,,,0.30,Wunderground v.1.15,2013-04-10 13:04:00,
2013-04-10 09:10:00,47.7,42.8,29.99,NNW,331,2.0,3.0,83,0.00,,,0.30,Wunderground v.1.15,2013-04-10 13:10:00,
2013-04-10 09:16:00,47.8,42.9,29.99,NNW,331,1.0,3.0,83,0.00,,,0.30,Wunderground v.1.15,2013-04-10 13:16:00,
2013-04-10 09:24:00,48.3,43.4,29.99,NNW,328,1.0,3.0,83,0.00,,,0.30,Wunderground v.1.15,2013-04-10 13:24:00,
2013-04-10 09:30:00,48.3,43.4,29.99,NNW,327,1.0,1.0,83,0.00,,,0.30,Wunderground v.1.15,2013-04-10 13:30:00,
2013-04-10 09:36:00,48.4,43.5,30.00,NNW,327,1.0,2.0,83,0.00,,,0.30,Wunderground v.1.15,2013-04-10 13:36:00,
2013-04-10 09:42:00,48.5,43.6,30.00,NW,322,2.0,2.0,83,0.00,,,0.30,Wunderground v.1.15,2013-04-10 13:42:00,
2013-04-10 09:48:00,48.5,43.6,30.00,NW,322,1.0,2.0,83,0.00,,,0.30,Wunderground v.1.15,2013-04-10 13:48:00,
2013-04-10 09:53:00,48.5,43.6,30.00,NW,322,0.0,0.0,83,0.00,,,0.30,Wunderground v.1.15,2013-04-10 13:53:00,
2013-04-10 10:00:00,48.4,43.5,30.00,NW,322,0.0,4.0,83,0.00,,,0.30,Wunderground v.1.15,2013-04-10 14:00:00,
2013-04-10 10:06:00,48.7,43.8,30.00,NW,322,1.0,4.0,83,0.00,,,0.30,Wunderground v.1.15,2013-04-10 14:06:00,
2013-04-10 10:12:00,48.8,43.9,30.00,NW,322,0.0,0.0,83,0.00,,,0.30,Wunderground v.1.15,2013-04-10 14:12:00,
2013-04-10 10:18:00,48.9,44.3,30.00,NW,323,1.0,3.0,84,0.00,,,0.30,Wunderground v.1.15,2013-04-10 14:18:00,
2013-04-10 10:24:00,49.3,44.7,30.01,NW,321,1.0,3.0,84,0.00,,,0.30,Wunderground v.1.15,2013-04-10 14:24:00,
2013-04-10 10:30:00,49.5,45.2,30.02,NNW,329,1.0,1.0,85,0.00,,,0.30,Wunderground v.1.15,2013-04-10 14:30:00,
2013-04-10 10:36:00,49.7,45.7,30.01,NNW,329,1.0,3.0,86,0.00,,,0.30,Wunderground v.1.15,2013-04-10 14:36:00,
2013-04-10 10:42:00,49.8,46.1,30.00,NE,36,2.0,6.0,87,0.00,,,0.30,Wunderground v.1.15,2013-04-10 14:42:00,
2013-04-10 10:48:00,49.8,46.1,30.00,North,355,2.0,6.0,87,0.00,,,0.30,Wunderground v.1.15,2013-04-10 14:48:00,
2013-04-10 10:54:00,50.2,46.8,30.00,NNE,19,2.0,2.0,88,0.00,,,0.30,Wunderground v.1.15,2013-04-10 14:54:00,
2013-04-10 11:00:00,50.5,46.8,29.99,NE,36,2.0,5.0,87,0.00,,,0.30,Wunderground v.1.15,2013-04-10 15:00:00,
2013-04-10 11:06:00,51.0,47.6,29.99,NNE,30,2.0,5.0,88,0.00,,,0.30,Wunderground v.1.15,2013-04-10 15:06:00,
2013-04-10 11:12:00,52.0,48.3,29.99,NNE,18,1.0,2.0,87,0.00,,,0.30,Wunderground v.1.15,2013-04-10 15:12:00,
2013-04-10 11:18:00,52.4,48.3,29.98,NNE,18,0.0,2.0,86,0.00,,,0.30,Wunderground v.1.15,2013-04-10 15:18:00,
2013-04-10 11:24:00,53.3,49.2,29.98,North,355,1.0,1.0,86,0.00,,,0.30,Wunderground v.1.15,2013-04-10 15:24:00,
2013-04-10 11:30:00,53.0,48.3,29.99,NNW,336,2.0,2.0,84,0.00,,,0.30,Wunderground v.1.15,2013-04-10 15:30:00,
2013-04-10 11:36:00,52.8,48.1,30.00,NNW,330,2.0,2.0,84,0.00,,,0.30,Wunderground v.1.15,2013-04-10 15:36:00,
2013-04-10 11:42:00,52.5,47.8,29.99,NNW,330,0.0,1.0,84,0.00,,,0.30,Wunderground v.1.15,2013-04-10 15:42:00,
2013-04-10 11:48:00,52.4,47.7,29.99,NNW,329,1.0,3.0,84,0.00,,,0.30,Wunderground v.1.15,2013-04-10 15:48:00,
2013-04-10 11:54:00,52.4,47.7,29.99,NNW,328,1.0,2.0,84,0.00,,,0.30,Wunderground v.1.15,2013-04-10 15:54:00,
2013-04-10 12:00:00,52.4,47.7,29.99,NNW,328,1.0,1.0,84,0.00,,,0.30,Wunderground v.1.15,2013-04-10 16:00:00,
2013-04-10 12:06:00,52.6,48.2,30.00,NW,324,1.0,3.0,85,0.00,,,0.30,Wunderground v.1.15,2013-04-10 16:06:00,
2013-04-10 12:12:00,52.6,47.9,30.00,NW,324,2.0,2.0,84,0.00,,,0.30,Wunderground v.1.15,2013-04-10 16:12:00,
2013-04-10 12:18:00,52.7,48.0,29.99,NW,324,1.0,2.0,84,0.00,,,0.30,Wunderground v.1.15,2013-04-10 16:18:00,
2013-04-10 12:24:00,52.6,47.9,30.00,NW,316,1.0,2.0,84,0.00,,,0.30,Wunderground v.1.15,2013-04-10 16:24:00,
2013-04-10 12:30:00,52.6,48.5,30.01,West,281,3.0,3.0,86,0.00,,,0.31,Wunderground v.1.15,2013-04-10 16:30:00,
2013-04-10 12:36:00,51.8,47.7,30.00,North,355,2.0,4.0,86,0.11,,,0.32,Wunderground v.1.15,2013-04-10 16:36:00,
2013-04-10 12:42:00,51.4,47.7,30.02,NW,311,3.0,7.0,87,0.05,,,0.32,Wunderground v.1.15,2013-04-10 16:42:00,
2013-04-10 12:48:00,50.9,47.2,30.05,NW,323,7.0,9.0,87,0.04,,,0.33,Wunderground v.1.15,2013-04-10 16:48:00,
2013-04-10 12:54:00,50.5,46.8,30.00,North,5,5.0,6.0,87,0.15,,,0.35,Wunderground v.1.15,2013-04-10 16:54:00,
2013-04-10 13:00:00,50.2,46.5,30.01,NNE,19,2.0,2.0,87,0.10,,,0.35,Wunderground v.1.15,2013-04-10 17:00:00,
2013-04-10 13:08:00,50.3,46.6,29.98,NNE,18,1.0,2.0,87,0.04,,,0.35,Wunderground v.1.15,2013-04-10 17:08:00,
2013-04-10 13:14:00,50.4,46.7,29.99,NNE,18,0.0,1.0,87,0.04,,,0.36,Wunderground v.1.15,2013-04-10 17:14:00,
2013-04-10 13:20:00,50.4,46.7,29.97,NNE,18,0.0,0.0,87,0.04,,,0.36,Wunderground v.1.15,2013-04-10 17:20:00,
2013-04-10 13:26:00,50.5,46.5,29.94,NE,40,1.0,2.0,86,0.04,,,0.36,Wunderground v.1.15,2013-04-10 17:26:00,
2013-04-10 13:32:00,50.7,46.7,29.93,East,101,2.0,3.0,86,0.00,,,0.36,Wunderground v.1.15,2013-04-10 17:32:00,
2013-04-10 13:38:00,50.8,46.8,29.92,SE,142,3.0,5.0,86,0.00,,,0.36,Wunderground v.1.15,2013-04-10 17:38:00,
2013-04-10 13:44:00,51.3,46.9,29.93,SSE,151,3.0,5.0,85,0.00,,,0.36,Wunderground v.1.15,2013-04-10 17:44:00,
2013-04-10 13:50:00,51.5,47.1,29.93,SSE,153,2.0,2.0,85,0.00,,,0.36,Wunderground v.1.15,2013-04-10 17:50:00,
2013-04-10 13:56:00,53.0,48.3,29.93,ESE,109,1.0,2.0,84,0.00,,,0.36,Wunderground v.1.15,2013-04-10 17:56:00,
2013-04-10 14:02:00,52.4,48.9,29.93,ENE,57,1.0,3.0,88,0.00,,,0.36,Wunderground v.1.15,2013-04-10 18:02:00,
2013-04-10 14:08:00,52.0,48.3,29.93,ENE,57,1.0,3.0,87,0.00,,,0.36,Wunderground v.1.15,2013-04-10 18:08:00,
2013-04-10 14:14:00,53.0,49.2,29.95,ESE,108,1.0,2.0,87,0.00,,,0.36,Wunderground v.1.15,2013-04-10 18:14:00,
2013-04-10 14:20:00,53.3,49.5,29.95,ESE,109,1.0,1.0,87,0.00,,,0.36,Wunderground v.1.15,2013-04-10 18:20:00,
2013-04-10 14:26:00,53.3,49.2,29.94,ESE,106,0.0,2.0,86,0.00,,,0.36,Wunderground v.1.15,2013-04-10 18:26:00,
2013-04-10 14:32:00,52.8,48.4,29.94,East,91,0.0,1.0,85,0.00,,,0.36,Wunderground v.1.15,2013-04-10 18:32:00,
2013-04-10 14:38:00,52.8,48.1,29.94,East,91,0.0,1.0,84,0.00,,,0.36,Wunderground v.1.15,2013-04-10 18:38:00,
2013-04-10 14:44:00,53.1,48.7,29.94,East,90,0.0,0.0,85,0.00,,,0.36,Wunderground v.1.15,2013-04-10 18:44:00,
2013-04-10 14:50:00,53.2,48.8,29.93,East,92,0.0,0.0,85,0.00,,,0.36,Wunderground v.1.15,2013-04-10 18:50:00,
2013-04-10 14:56:00,53.3,48.6,29.93,East,90,0.0,2.0,84,0.00,,,0.36,Wunderground v.1.15,2013-04-10 18:56:00,
2013-04-10 15:02:00,53.1,48.4,29.92,East,90,1.0,2.0,84,0.00,,,0.36,Wunderground v.1.15,2013-04-10 19:02:00,
2013-04-10 15:08:00,53.2,48.8,29.92,East,90,0.0,2.0,85,0.00,,,0.36,Wunderground v.1.15,2013-04-10 19:08:00,
2013-04-10 15:14:00,53.4,49.0,29.93,ENE,78,0.0,2.0,85,0.00,,,0.36,Wunderground v.1.15,2013-04-10 19:14:00,
2013-04-10 15:20:00,53.3,48.3,29.92,ENE,65,1.0,1.0,83,0.00,,,0.36,Wunderground v.1.15,2013-04-10 19:20:00,
2013-04-10 15:26:00,53.1,48.1,29.92,ENE,65,1.0,3.0,83,0.00,,,0.36,Wunderground v.1.15,2013-04-10 19:26:00,
2013-04-10 15:32:00,53.0,48.3,29.92,ENE,65,1.0,1.0,84,0.00,,,0.36,Wunderground v.1.15,2013-04-10 19:32:00,
2013-04-10 15:38:00,52.8,48.1,29.91,ENE,60,1.0,2.0,84,0.00,,,0.36,Wunderground v.1.15,2013-04-10 19:38:00,
2013-04-10 15:44:00,52.5,47.8,29.91,NE,45,2.0,2.0,84,0.00,,,0.36,Wunderground v.1.15,2013-04-10 19:44:00,
2013-04-10 15:50:00,52.3,47.9,29.91,NE,45,1.0,1.0,85,0.00,,,0.37,Wunderground v.1.15,2013-04-10 19:50:00,
2013-04-10 15:56:00,52.1,48.0,29.89,NE,46,1.0,3.0,86,0.00,,,0.37,Wunderground v.1.15,2013-04-10 19:56:00,
2013-04-10 16:02:00,51.9,48.2,29.88,NE,46,2.0,3.0,87,0.00,,,0.37,Wunderground v.1.15,2013-04-10 20:02:00,
2013-04-10 16:08:00,51.9,48.2,29.89,NE,42,1.0,3.0,87,0.00,,,0.37,Wunderground v.1.15,2013-04-10 20:08:00,
2013-04-10 16:14:00,51.7,48.0,29.89,NE,38,1.0,3.0,87,0.00,,,0.37,Wunderground v.1.15,2013-04-10 20:14:00,
2013-04-10 16:20:00,51.5,47.8,29.89,NNE,32,2.0,2.0,87,0.00,,,0.37,Wunderground v.1.15,2013-04-10 20:20:00,
2013-04-10 16:26:00,51.3,47.6,29.88,NNE,24,2.0,3.0,87,0.00,,,0.37,Wunderground v.1.15,2013-04-10 20:26:00,
2013-04-10 16:32:00,51.3,47.9,29.88,NNE,24,1.0,2.0,88,0.00,,,0.38,Wunderground v.1.15,2013-04-10 20:32:00,
2013-04-10 16:38:00,51.0,47.6,29.88,NNE,20,1.0,2.0,88,0.00,,,0.38,Wunderground v.1.15,2013-04-10 20:38:00,
2013-04-10 16:44:00,50.8,47.4,29.87,NNE,13,1.0,1.0,88,0.38,,,0.40,Wunderground v.1.15,2013-04-10 20:44:00,
2013-04-10 16:50:00,50.6,46.9,29.88,NNE,12,1.0,1.0,87,0.09,,,0.40,Wunderground v.1.15,2013-04-10 20:50:00,
2013-04-10 16:56:00,50.6,46.9,29.87,North,5,0.0,3.0,87,0.09,,,0.41,Wunderground v.1.15,2013-04-10 20:56:00,
2013-04-10 17:02:00,50.3,46.6,29.89,NNE,13,1.0,4.0,87,0.05,,,0.41,Wunderground v.1.15,2013-04-10 21:02:00,
2013-04-10 17:08:00,50.1,46.4,29.89,NW,320,2.0,5.0,87,0.55,,,0.44,Wunderground v.1.15,2013-04-10 21:08:00,
2013-04-10 17:14:00,50.0,46.3,29.89,NW,321,1.0,1.0,87,0.20,,,0.47,Wunderground v.1.15,2013-04-10 21:14:00,
2013-04-10 17:20:00,49.6,45.9,29.87,NNE,14,2.0,3.0,87,0.07,,,0.48,Wunderground v.1.15,2013-04-10 21:20:00,
2013-04-10 17:26:00,49.3,45.6,29.87,NNE,15,2.0,3.0,87,0.17,,,0.49,Wunderground v.1.15,2013-04-10 21:26:00,
2013-04-10 17:32:00,49.2,45.2,29.87,NNE,15,1.0,1.0,86,0.22,,,0.51,Wunderground v.1.15,2013-04-10 21:32:00,
2013-04-10 17:38:00,49.2,45.2,29.87,NNE,15,1.0,2.0,86,0.08,,,0.51,Wunderground v.1.15,2013-04-10 21:38:00,
2013-04-10 17:44:00,49.2,45.2,29.95,NW,326,4.0,9.0,86,0.05,,,0.52,Wunderground v.1.15,2013-04-10 21:44:00,
2013-04-10 17:50:00,49.1,45.1,29.95,WNW,300,8.0,8.0,86,0.64,,,0.61,Wunderground v.1.15,2013-04-10 21:50:00,
2013-04-10 17:56:00,48.7,44.7,29.91,NNW,333,5.0,8.0,86,0.36,,,0.65,Wunderground v.1.15,2013-04-10 21:56:00,
2013-04-10 18:02:00,48.5,44.5,29.88,NNW,347,2.0,2.0,86,0.28,,,0.68,Wunderground v.1.15,2013-04-10 22:02:00,
2013-04-10 18:08:00,48.2,44.2,29.86,NNE,19,2.0,2.0,86,0.17,,,0.70,Wunderground v.1.15,2013-04-10 22:08:00,
2013-04-10 18:14:00,48.0,44.0,29.84,NE,49,2.0,3.0,86,0.08,,,0.70,Wunderground v.1.15,2013-04-10 22:14:00,
2013-04-10 18:20:00,47.9,43.6,29.84,NE,50,2.0,5.0,85,0.06,,,0.71,Wunderground v.1.15,2013-04-10 22:20:00,
2013-04-10 18:26:00,47.8,43.5,29.85,NE,44,2.0,5.0,85,0.06,,,0.71,Wunderground v.1.15,2013-04-10 22:26:00,
2013-04-10 18:32:00,47.8,43.5,29.86,NE,44,1.0,2.0,85,0.04,,,0.71,Wunderground v.1.15,2013-04-10 22:32:00,
2013-04-10 18:38:00,48.1,43.5,29.87,NE,44,0.0,2.0,84,0.00,,,0.71,Wunderground v.1.15,2013-04-10 22:38:00,
2013-04-10 18:44:00,48.2,43.6,29.87,NE,43,0.0,1.0,84,0.00,,,0.71,Wunderground v.1.15,2013-04-10 22:44:00,
2013-04-10 18:50:00,48.3,43.7,29.88,NE,43,0.0,0.0,84,0.00,,,0.71,Wunderground v.1.15,2013-04-10 22:50:00,
2013-04-10 18:56:00,48.4,43.8,29.88,NE,43,0.0,0.0,84,0.00,,,0.71,Wunderground v.1.15,2013-04-10 22:56:00,
2013-04-10 19:02:00,48.4,43.8,29.88,NE,43,0.0,0.0,84,0.00,,,0.71,Wunderground v.1.15,2013-04-10 23:02:00,
2013-04-10 19:08:00,48.4,43.8,29.88,NE,43,0.0,0.0,84,0.00,,,0.71,Wunderground v.1.15,2013-04-10 23:08:00,
2013-04-10 19:14:00,48.3,43.7,29.89,NE,40,0.0,2.0,84,0.00,,,0.71,Wunderground v.1.15,2013-04-10 23:14:00,
2013-04-10 19:19:00,48.3,43.7,29.89,NE,40,1.0,1.0,84,0.00,,,0.71,Wunderground v.1.15,2013-04-10 23:19:00,
2013-04-10 19:26:00,48.2,43.6,29.88,NE,40,0.0,1.0,84,0.00,,,0.71,Wunderground v.1.15,2013-04-10 23:26:00,
2013-04-10 19:32:00,48.1,43.5,29.89,NE,40,0.0,0.0,84,0.00,,,0.71,Wunderground v.1.15,2013-04-10 23:32:00,
2013-04-10 19:38:00,48.1,43.5,29.89,NE,40,1.0,2.0,84,0.00,,,0.71,Wunderground v.1.15,2013-04-10 23:38:00,
2013-04-10 19:44:00,48.0,43.4,29.89,NNE,19,1.0,2.0,84,0.00,,,0.71,Wunderground v.1.15,2013-04-10 23:44:00,
2013-04-10 19:50:00,47.8,43.2,29.89,NNW,338,1.0,1.0,84,0.00,,,0.71,Wunderground v.1.15,2013-04-10 23:50:00,
2013-04-10 19:56:00,47.5,43.2,29.90,NW,325,2.0,2.0,85,0.00,,,0.71,Wunderground v.1.15,2013-04-10 23:56:00,
2013-04-10 20:02:00,47.2,42.9,29.89,NNW,328,1.0,2.0,85,0.00,,,0.71,Wunderground v.1.15,2013-04-11 00:02:00,
2013-04-10 20:08:00,46.9,42.6,29.89,NW,323,1.0,3.0,85,0.00,,,0.71,Wunderground v.1.15,2013-04-11 00:08:00,
2013-04-10 20:14:00,46.8,42.5,29.89,NW,324,1.0,2.0,85,0.00,,,0.71,Wunderground v.1.15,2013-04-11 00:14:00,
2013-04-10 20:20:00,46.7,42.4,29.88,NW,322,1.0,1.0,85,0.00,,,0.71,Wunderground v.1.15,2013-04-11 00:20:00,
2013-04-10 20:26:00,46.6,42.3,29.88,NW,322,1.0,1.0,85,0.00,,,0.71,Wunderground v.1.15,2013-04-11 00:26:00,
2013-04-10 20:32:00,46.6,42.3,29.88,NW,325,0.0,1.0,85,0.00,,,0.71,Wunderground v.1.15,2013-04-11 00:32:00,
2013-04-10 20:38:00,46.5,42.2,29.88,NNW,329,0.0,4.0,85,0.00,,,0.71,Wunderground v.1.15,2013-04-11 00:38:00,
2013-04-10 20:44:00,46.4,42.1,29.87,NNW,342,1.0,4.0,85,0.00,,,0.71,Wunderground v.1.15,2013-04-11 00:44:00,
2013-04-10 20:50:00,46.2,41.9,29.87,NNE,13,2.0,3.0,85,0.00,,,0.71,Wunderground v.1.15,2013-04-11 00:50:00,
2013-04-10 20:56:00,46.1,41.8,29.88,NNE,12,2.0,5.0,85,0.00,,,0.71,Wunderground v.1.15,2013-04-11 00:56:00,
2013-04-10 21:02:00,46.0,42.0,29.89,North,5,2.0,9.0,86,0.00,,,0.71,Wunderground v.1.15,2013-04-11 01:02:00,
2013-04-10 21:08:00,46.0,42.0,29.90,NNW,346,2.0,9.0,86,0.00,,,0.71,Wunderground v.1.15,2013-04-11 01:08:00,
2013-04-10 21:14:00,45.9,41.9,29.90,NNW,344,1.0,2.0,86,0.00,,,0.71,Wunderground v.1.15,2013-04-11 01:14:00,
2013-04-10 21:20:00,45.8,41.9,29.92,NW,323,1.0,2.0,86,0.00,,,0.71,Wunderground v.1.15,2013-04-11 01:20:00,
2013-04-10 21:26:00,45.8,41.9,29.92,NNW,327,1.0,4.0,86,0.00,,,0.71,Wunderground v.1.15,2013-04-11 01:26:00,
2013-04-10 21:32:00,45.7,41.8,29.93,NW,318,2.0,4.0,86,0.00,,,0.71,Wunderground v.1.15,2013-04-11 01:32:00,
2013-04-10 21:38:00,45.6,41.7,29.94,NW,323,2.0,4.0,86,0.00,,,0.71,Wunderground v.1.15,2013-04-11 01:38:00,
2013-04-10 21:44:00,45.5,41.9,29.94,NNW,328,3.0,4.0,87,0.00,,,0.71,Wunderground v.1.15,2013-04-11 01:44:00,
2013-04-10 21:50:00,45.3,41.7,29.94,NNW,328,2.0,2.0,87,0.00,,,0.71,Wunderground v.1.15,2013-04-11 01:50:00,
2013-04-10 21:56:00,45.2,41.6,29.94,NNW,332,1.0,2.0,87,0.00,,,0.71,Wunderground v.1.15,2013-04-11 01:56:00,
2013-04-10 22:02:00,45.2,41.6,29.94,NNW,338,1.0,1.0,87,0.00,,,0.71,Wunderground v.1.15,2013-04-11 02:02:00,
2013-04-10 22:08:00,45.1,41.5,29.94,North,5,1.0,3.0,87,0.00,,,0.71,Wunderground v.1.15,2013-04-11 02:08:00,
2013-04-10 22:14:00,44.9,41.3,29.94,North,5,1.0,1.0,87,0.00,,,0.71,Wunderground v.1.15,2013-04-11 02:14:00,
2013-04-10 22:20:00,44.9,41.3,29.94,North,360,1.0,1.0,87,0.00,,,0.71,Wunderground v.1.15,2013-04-11 02:20:00,
2013-04-10 22:25:00,44.8,41.2,29.94,NNW,336,1.0,2.0,87,0.00,,,0.71,Wunderground v.1.15,2013-04-11 02:25:00,
2013-04-10 22:32:00,44.7,41.1,29.94,NNW,335,1.0,2.0,87,0.00,,,0.72,Wunderground v.1.15,2013-04-11 02:32:00,
2013-04-10 22:38:00,44.6,41.0,29.94,NNW,336,1.0,2.0,87,0.00,,,0.72,Wunderground v.1.15,2013-04-11 02:38:00,
2013-04-10 22:44:00,44.6,41.0,29.94,NNW,336,0.0,1.0,87,0.00,,,0.72,Wunderground v.1.15,2013-04-11 02:44:00,
2013-04-10 22:50:00,44.6,40.7,29.93,NNW,336,1.0,1.0,86,0.00,,,0.72,Wunderground v.1.15,2013-04-11 02:50:00,
2013-04-10 22:56:00,44.5,40.6,29.94,NNW,336,0.0,1.0,86,0.00,,,0.72,Wunderground v.1.15,2013-04-11 02:56:00,
2013-04-10 23:02:00,44.5,40.6,29.94,NNW,335,1.0,1.0,86,0.00,,,0.72,Wunderground v.1.15,2013-04-11 03:02:00,
2013-04-10 23:07:00,44.5,40.6,29.94,NNW,335,1.0,2.0,86,0.00,,,0.72,Wunderground v.1.15,2013-04-11 03:07:00,
2013-04-10 23:14:00,44.5,40.6,29.95,NNW,333,2.0,3.0,86,0.00,,,0.72,Wunderground v.1.15,2013-04-11 03:14:00,
2013-04-10 23:20:00,44.4,40.5,29.95,NW,321,3.0,4.0,86,0.00,,,0.72,Wunderground v.1.15,2013-04-11 03:20:00,
2013-04-10 23:26:00,44.3,40.4,29.95,NW,320,3.0,4.0,86,0.00,,,0.72,Wunderground v.1.15,2013-04-11 03:26:00,
2013-04-10 23:32:00,44.2,40.3,29.96,NW,319,3.0,4.0,86,0.00,,,0.72,Wunderground v.1.15,2013-04-11 03:32:00,
2013-04-10 23:38:00,44.1,40.2,29.97,NW,322,3.0,6.0,86,0.00,,,0.72,Wunderground v.1.15,2013-04-11 03:38:00,
2013-04-10 23:44:00,44.0,40.1,29.98,NW,317,3.0,6.0,86,0.00,,,0.72,Wunderground v.1.15,2013-04-11 03:44:00,
2013-04-10 23:50:00,44.0,40.1,29.98,NW,318,4.0,4.0,86,0.00,,,0.72,Wunderground v.1.15,2013-04-11 03:50:00,
2013-04-10 23:56:00,44.0,40.1,29.98,NW,319,3.0,4.0,86,0.00,,,0.72,Wunderground v.1.15,2013-04-11 03:56:00,